Meridian, MS

10:17 PM CDT on October 18, 2019 (GMT -0500)
Key

Weather History for KMEI - August, 2019

Change the Weather History Date:

Saturday, August 31, 2019

  Actual Average Record
Temperature  
Mean Temperature 78 °F 79 °F  
Max Temperature 93 °F 90 °F 104 °F (1951)
Min Temperature 63 °F 68 °F 55 °F (1968)
Degree Days  
Heating Degree Days 0 0  
Month to date heating degree days 0 0  
Since 1 June heating degree days 0 0  
Since 1 July heating degree days 0 0  
Cooling Degree Days 14 14  
Month to date cooling degree days 568 473  
Year to date cooling degree days 2083 1620  
Since 1 June cooling degree days 1587 1337  
Growing Degree Days 28 (Base 50)    
Moisture  
Dew Point 67 °F    
Average Humidity 66    
Maximum Humidity 93    
Minimum Humidity 42    
Precipitation  
Precipitation 0.00 in 0.11 in 1.32 in (1928)
Month to date precipitation 4.37 3.99  
Year to date precipitation 42.95 38.96  
Sea Level Pressure  
Sea Level Pressure 30.04 in    
Wind  
Wind Speed 3 mph ()    
Max Wind Speed 13 mph    
Max Gust Speed 18 mph    
Visibility 10.0 miles    
Events      
T = Trace of Precipitation, MM = Missing Value Source: Averaged Metar Reports

Daily Weather History Graph

Daily Weather History Graph

Search for Another Location

Airport or City:

Astronomy

Aug. 31, 2019 Rise Set
Actual Time 6:29 AM CDT 7:20 PM CDT
Civil Twilight 6:04 AM CDT 7:45 PM CDT
Nautical Twilight 5:34 AM CDT 8:15 PM CDT
Astronomical Twilight 5:04 AM CDT 8:45 PM CDT
Moon 7:43 AM CDT (8/31) 8:37 PM CDT (8/31)
Length of Visible Light 13h 41m
Length of Day
12h 51m
New Moon, 3% of the Moon is Illuminated
Aug 31
New Moon
Sep 5
First Quarter
Sep 13
Full
Sep 21
Last Quarter
Sep 28
New

Hourly Weather History & Observations

Time (CDT) Temp. Heat Index Dew Point Humidity Pressure Visibility Wind Dir Wind Speed Gust Speed Precip Events Conditions
12:58 AM 66.9 °F - 64.0 °F 90% 30.06 in 10.0 mi Calm Calm - N/A   Clear
2:58 AM 66.0 °F - 63.0 °F 90% 30.04 in 10.0 mi NNW 3.5 mph - N/A   Clear
3:58 AM 66.0 °F - 63.0 °F 90% 30.04 in 10.0 mi Calm Calm - N/A   Clear
4:58 AM 64.9 °F - 62.1 °F 90% 30.04 in 10.0 mi Calm Calm - N/A   Clear
5:58 AM 64.0 °F - 61.0 °F 90% 30.05 in 10.0 mi NW 3.5 mph - N/A   Clear
6:58 AM 64.0 °F - 61.0 °F 90% 30.06 in 10.0 mi NW 3.5 mph - N/A   Clear
7:58 AM 72.0 °F - 64.9 °F 78% 30.08 in 10.0 mi NNW 4.6 mph - N/A   Clear
8:58 AM 78.1 °F - 68.0 °F 71% 30.08 in 10.0 mi North 4.6 mph - N/A   Clear
9:58 AM 84.0 °F 86.3 °F 66.0 °F 55% 30.08 in 10.0 mi NE 5.8 mph - N/A   Clear
10:58 AM 88.0 °F 91.4 °F 68.0 °F 51% 30.07 in 10.0 mi NE 5.8 mph - N/A   Clear
11:58 AM 90.0 °F 94.5 °F 69.1 °F 50% 30.07 in 10.0 mi SE 9.2 mph - N/A   Clear
12:58 PM 91.9 °F 94.5 °F 66.0 °F 42% 30.06 in 10.0 mi SE 10.4 mph - N/A   Scattered Clouds
1:58 PM 91.9 °F 96.9 °F 69.1 °F 47% 30.05 in 10.0 mi East 8.1 mph - N/A   Partly Cloudy
2:58 PM 91.9 °F 95.9 °F 68.0 °F 45% 30.02 in 10.0 mi East 6.9 mph - N/A   Partly Cloudy
3:58 PM 93.0 °F 97.9 °F 69.1 °F 45% 30.01 in 10.0 mi Variable 6.9 mph - N/A   Clear
4:58 PM 93.0 °F 97.4 °F 68.0 °F 44% 29.99 in 10.0 mi North 8.1 mph - N/A   Clear
5:58 PM 91.0 °F 94.3 °F 66.9 °F 45% 30.00 in 10.0 mi NE 6.9 mph - N/A   Clear
6:58 PM 89.1 °F 92.1 °F 66.9 °F 48% 30.00 in 10.0 mi NE 9.2 mph - N/A   Clear
7:58 PM 80.1 °F 83.6 °F 71.1 °F 74% 30.01 in 10.0 mi Calm Calm - N/A   Clear
8:58 PM 78.1 °F - 71.1 °F 79% 30.02 in 10.0 mi Calm Calm - N/A   Clear
9:58 PM 77.0 °F - 71.1 °F 82% 30.04 in 10.0 mi Calm Calm - N/A   Clear
10:58 PM 79.0 °F - 66.9 °F 66% 30.03 in 10.0 mi NNE 4.6 mph - N/A   Clear
11:58 PM 80.1 °F 82.1 °F 66.0 °F 62% 30.04 in 10.0 mi ENE 5.8 mph - N/A   Mostly Cloudy